GPS BIIF-12 (PRN 32)

Last updated on July 6, 2021, 3:39 p.m. UTC

1 41328U 16007A   21186.51201079  .00000055  00000-0  00000-0 0  9995
2 41328  54.8586 161.2406 0052083 226.6624 132.8848  2.00561521 39583
UTC
Height (km)
Latitude
Longitude
Inclination
Orbital Period
UTC large
Height (km)
Speed (km/s)
/
Latitude / Longitude
Inclination (degrees)
Orbital Period (minutes)
Azimuth
Elevation
Range (km)
Doppler Factor
iOS Compass Heading
iOS Angle